Location: Unspecified
(0.0000°N, 0.0000°E)
Time: 15:21:00
(UTC+00:00)

Altair - Pass Details

Date: 03 November 2021
Orbit: 1502 x 1682 km, 47.2° (Epoch: 26 November)

Event Time Altitude Azimuth Distance (km) Brightness Sun altitude
Rises 09:01:24 0° 316° (NW) 4,838 9.7 47.2°
Reaches altitude 10° 09:04:29 10° 315° (NW) 3,873 9.3 47.9°
Maximum altitude 09:14:26 75° 231° (SW) 1,719 8.6 50.2°
Drops below altitude 10° 09:24:37 10° 146° (SE) 3,943 10.3 52.5°
Sets 09:27:48 0° 144° (SE) 4,928 10.6 53.2°
